OneWeb SL0270

operational
NORAD ID: 48988 Int'l Des: 2021-060 Owner: ONEWEBN Country: UK Constellation: oneweb
LEOCIRCULARPOLARONEWEB_TYPE

Über OneWeb SL0270

Beschreibung wird geladen...

Live-Position

3D-Globus wird geladen...

Nächste Überflüge

Höhenverlauf

Altitude vs Time

uPlot chart will show altitude changes over time

Zweizeiliger Elementsatz

1 48988U 21060X 25351.32277535 -.00000315 00000-0 -85793-3 0 9992
2 48988 87.9047 264.9950 0001867 61.6962 298.4357 13.16593546215730
Epoch: 17. Dez. 2025 • Age: 9 hours

Aktueller Status

Höhe 1226.3 km
Geschwindigkeit 7.24 km/s
Subsatellitenpunkt -75.88°S, 77.17°W
Startdatum 1. Juli 2021
Alter 4.4 years
Typ internet

Technische Details

Klassifizierung Payload
Masse 148.00 kg
Trockenmasse 140.00 kg
Gesamtmasse 148.00 kg
Länge 1.30 m
Durchmesser 1.00 m
Spannweite 5.00 m
Form Trapezoid+2 pan
Hersteller ONEWUS
Bus-Typ ARROW
Phasenstatus In Orbit
Besitzer/Staat ONEWEBN/UK

Große Konstellationen

Loading constellations...